Wind_Speed
65 65 67 70 69 68 64 62 59 55 51 50 47 46 45 44 41 39 36 32 28 23 20 21 19 20 11 12 11 10 13 14 13 12 11 13 7 10 7 13 10 14 11 12
68 68 69 68 69 69 67 68 65 61 56 53 51 49 48 46 48 44 41 39 35 28 20 18 16 14 11 13 12 12 14 16 15 15 13 11 8 9 8 6 8 8 9 11
72 75 70 68 66 67 68 72 70 65 60 58 55 55 53 51 48 45 42 42 38 29 29 25 19 16 13 11 15 13 16 17 17 15 14 12 11 10 12 10 7 8 7 10
75 75 73 70 69 68 66 71 72 69 65 62 59 58 57 53 53 50 47 44 41 36 29 28 22 17 18 14 13 17 17 21 19 18 17 16 12 11 10 9 8 9 7 9
75 76 76 74 73 71 73 71 69 63 65 64 61 60 61 60 59 57 52 47 44 40 35 29 22 25 21 23 16 15 18 23 23 21 20 17 17 13 10 9 10 9 7 8
79 77 77 78 76 72 74 73 72 66 61 61 62 61 62 67 67 64 57 52 47 44 39 37 32 27 25 19 21 13 16 24 26 22 23 20 17 14 13 10 9 7 6 5
81 80 78 78 77 77 76 75 75 72 66 64 62 62 66 71 66 63 59 52 50 46 45 39 35 27 25 18 23 13 15 26 28 25 24 22 21 19 16 14 11 8 7 6
84 82 82 81 80 78 79 77 75 73 70 69 68 66 70 68 65 64 59 60 56 50 48 45 38 34 27 24 25 18 16 23 31 28 26 25 25 22 19 17 13 10 9 7
88 85 84 83 84 83 82 80 78 76 74 72 73 73 74 70 64 61 57 58 58 55 53 49 42 38 30 26 28 24 19 19 30 31 29 27 26 26 23 21 18 15 12 9
91 91 89 88 87 87 86 83 82 80 79 77 78 80 73 72 66 60 56 56 56 58 54 53 47 38 34 30 32 29 26 23 24 34 32 29 29 26 26 26 23 19 16 13
95 96 96 95 93 89 88 86 85 84 85 84 84 81 74 71 68 63 60 57 54 52 54 56 52 46 41 32 37 34 30 25 26 30 35 34 33 32 30 28 27 25 21 17
97 98 100 99 98 95 94 91 88 88 88 89 87 86 79 74 70 69 65 64 60 54 52 55 54 47 47 44 40 38 33 29 26 26 28 32 33 34 35 33 32 31 27 25
98 100 102 100 99 97 97 96 95 93 93 92 90 84 84 80 75 72 71 69 67 62 58 55 56 51 50 49 48 43 39 33 28 24 24 25 30 33 35 35 35 35 33 32
97 100 103 102 101 99 99 99 99 101 100 98 91 86 86 85 81 79 77 74 72 69 63 56 56 58 53 54 51 48 43 37 32 30 26 23 23 27 28 31 33 34 35 35
96 96 98 102 103 102 101 103 104 104 105 104 99 96 89 91 87 84 81 81 77 76 71 63 65 64 53 53 55 52 48 44 40 34 32 30 26 23 22 24 29 31 31 32
95 96 98 99 101 103 105 107 108 108 107 106 104 101 99 98 93 90 85 84 83 81 79 73 74 73 71 64 60 56 53 51 46 41 36 33 32 29 26 24 23 27 29 27
91 94 97 97 99 102 106 110 113 112 110 108 108 104 102 102 102 97 93 89 87 86 84 81 76 79 79 73 67 59 57 57 51 47 41 37 35 36 33 27 22 23 28 27
87 92 96 98 99 101 105 110 116 118 117 114 110 108 105 105 105 104 101 97 92 89 88 86 84 82 82 78 74 68 63 57 52 46 48 43 41 41 39 35 30 25 25 29
78 82 88 93 99 102 107 112 118 121 120 118 114 112 110 108 107 107 106 103 99 95 92 91 92 89 86 82 80 73 68 64 59 54 52 47 48 47 48 42 40 33 27 29
70 79 85 89 92 96 102 110 114 119 120 121 119 118 116 113 113 111 110 108 106 102 99 96 93 95 92 87 82 78 72 69 72 62 57 49 47 48 50 49 48 43 32 30
55 63 71 78 83 89 97 104 105 105 113 114 117 120 119 119 118 115 114 113 110 107 106 101 99 97 98 93 88 84 81 72 73 69 64 53 51 55 51 51 46 47 41 34
44 51 58 62 68 75 85 88 93 98 101 100 101 110 118 120 120 120 117 117 115 113 109 108 104 101 101 99 92 89 87 81 77 78 70 69 62 57 54 53 51 47 49 40
28 36 40 46 55 62 68 70 74 79 85 86 91 100 101 111 119 122 120 121 121 118 114 111 110 105 105 103 101 100 95 85 85 84 84 76 72 69 66 63 56 50 50 52
30 30 35 39 42 46 49 54 58 63 68 71 79 87 93 97 109 122 123 123 126 123 121 116 115 112 109 109 109 107 103 99 83 87 88 84 69 69 67 63 60 58 50 52
34 33 35 37 40 43 44 47 48 52 58 60 65 75 81 88 96 111 123 126 126 129 125 121 118 118 116 113 116 112 110 103 87 83 84 84 81 76 72 63 60 61 56 55
35 37 37 36 37 38 40 39 40 50 51 54 57 64 73 80 87 99 114 122 125 129 130 126 122 121 121 119 119 117 116 111 98 87 87 86 80 77 75 67 66 67 62 55
Wind_Direction
221 224 226 227 228 228 228 229 228 227 226 227 226 227 222 228 235 244 251 257 258 265 279 280 310 312 295 309 279 229 200 181 185 181 175 158 174 155 127 103 85 79 86 78
222 223 225 227 229 230 231 230 229 228 226 230 230 227 230 233 235 239 243 249 251 249 269 260 290 318 292 308 292 259 215 195 192 192 193 186 192 165 150 156 122 100 80 76
224 226 225 226 229 231 232 234 230 227 227 227 229 233 231 235 238 237 237 242 244 248 255 248 272 290 287 298 300 270 226 214 197 199 199 193 191 172 163 175 164 146 106 95
224 227 227 226 227 229 230 234 232 229 228 229 229 231 234 234 238 239 237 237 238 241 244 255 250 268 294 275 293 281 242 214 206 199 200 205 195 196 184 175 175 170 133 112
226 226 227 227 227 228 230 233 235 230 229 229 230 231 235 236 236 238 238 236 236 239 235 238 247 254 277 286 269 279 243 215 213 202 205 202 201 198 203 184 181 174 160 138
226 227 227 227 227 227 230 231 235 233 230 229 227 230 233 235 237 237 236 235 234 240 239 238 234 247 263 267 263 269 256 217 213 207 207 203 202 191 193 192 181 175 160 146
228 228 228 228 228 227 228 229 232 234 230 230 228 227 231 234 235 238 238 236 237 236 241 241 233 235 243 259 263 240 247 227 212 215 211 209 207 203 202 208 201 192 178 172
228 228 229 228 229 228 229 229 230 232 231 231 229 227 231 232 232 234 233 237 239 237 237 239 231 233 240 244 245 230 231 232 215 217 214 213 215 218 216 220 219 207 197 194
229 228 229 229 228 229 229 228 229 230 231 230 231 228 226 233 229 231 230 233 234 233 237 236 233 233 236 233 239 233 218 230 226 215 216 216 221 226 230 230 235 224 219 210
229 230 229 229 229 229 229 229 230 229 229 230 231 230 228 230 232 231 231 232 232 234 231 235 231 231 236 237 231 234 228 217 218 221 219 222 221 225 229 231 239 233 228 223
227 229 229 229 230 230 231 228 229 230 230 229 230 233 229 230 231 232 231 231 233 233 230 232 231 232 234 235 237 229 228 220 215 213 216 221 224 224 226 232 234 237 235 235
227 228 230 229 229 230 231 231 229 229 230 230 230 231 231 227 228 230 230 231 229 231 230 227 228 228 227 237 234 232 233 223 221 218 216 218 221 227 230 231 232 235 239 243
227 228 230 230 230 230 232 233 233 231 230 231 230 228 233 231 224 225 227 229 229 227 227 225 228 226 223 229 227 223 228 227 230 222 218 218 223 227 232 231 232 234 239 246
228 229 231 231 230 230 231 231 233 233 232 232 231 228 230 232 230 224 223 223 225 228 225 220 218 222 226 226 222 218 219 221 225 234 229 221 222 232 242 240 236 240 242 248
229 230 232 233 231 231 232 232 232 232 232 233 231 231 228 231 229 228 226 222 221 224 224 219 212 210 213 223 224 219 217 219 222 223 233 235 231 230 238 242 243 247 246 245
230 231 233 235 235 233 232 233 234 233 233 234 233 230 228 230 230 228 225 226 223 220 223 219 215 210 217 219 218 218 224 219 221 222 227 237 239 238 232 244 244 247 253 247
232 231 233 234 236 237 236 233 234 234 233 233 233 232 230 229 231 228 227 224 224 223 221 220 217 217 222 219 219 222 223 222 224 224 226 230 238 241 239 236 247 248 255 259
233 235 234 235 236 237 238 238 236 235 234 232 231 233 231 230 230 230 228 226 223 223 222 221 219 219 221 221 219 221 222 220 222 228 224 232 238 241 245 245 239 245 253 262
235 237 237 236 238 239 239 239 239 237 235 233 231 231 231 230 230 232 230 227 223 223 222 220 220 220 222 222 218 219 221 222 226 230 229 227 235 242 244 242 244 241 242 254
233 234 237 239 238 238 240 242 242 241 240 236 232 230 229 229 229 228 231 230 227 220 221 222 219 220 221 222 219 216 217 223 229 234 226 220 225 235 246 249 253 250 239 242
236 237 238 239 241 242 243 243 243 243 243 240 236 232 228 228 229 227 227 229 228 224 220 220 220 219 221 220 220 217 215 222 222 223 221 226 226 234 237 241 248 245 240 239
244 243 244 243 243 243 243 244 245 247 246 244 241 238 231 227 228 229 226 227 228 226 220 219 219 219 221 219 219 220 217 215 217 220 220 223 226 228 233 237 239 242 247 237
256 253 247 244 243 243 244 246 244 245 245 245 241 238 235 228 225 229 227 225 227 227 224 219 216 216 219 220 220 219 219 218 215 218 222 227 228 230 230 231 234 233 241 248
263 266 255 248 245 244 246 245 244 243 242 240 238 236 233 229 223 226 226 224 225 225 225 221 217 213 215 219 220 220 217 220 216 218 220 225 225 225 223 224 229 233 235 245
267 263 261 256 252 253 249 246 239 239 240 240 237 236 233 229 222 222 225 225 223 224 224 224 218 214 212 218 218 219 218 217 216 216 222 227 226 219 226 228 230 232 231 237
270 263 261 263 258 256 256 255 247 236 235 237 237 234 234 230 224 217 223 224 222 222 223 222 221 215 213 212 219 219 218 218 213 212 216 215 221 223 222 230 226 228 231 228
Height
10883 10890 10893 10899 10908 10915 10924 10930 10938 10949 10955 10959 10964 10969 10973 10975 10978 10982 10985 10986 10989 10989 10991 10993 10993 10994 10995 10993 10992 10990 10990 10991 10994 10995 10995 10996 10997 10997 10996 10995 10997 10999 11000 10999
10872 10874 10879 10889 10897 10906 10913 10918 10926 10938 10948 10953 10958 10962 10965 10967 10968 10973 10977 10980 10985 10988 10989 10991 10992 10991 10991 10992 10992 10991 10991 10992 10993 10996 10997 10997 10997 10997 10998 10999 11000 10999 11000 10999
10856 10856 10871 10880 10888 10894 10901 10901 10912 10927 10938 10944 10950 10952 10957 10960 10962 10966 10970 10973 10979 10984 10985 10988 10990 10991 10989 10991 10991 10991 10991 10992 10992 10995 10998 10999 10999 10999 10999 11001 11001 11001 11001 11000
10841 10848 10858 10867 10874 10881 10888 10885 10898 10914 10926 10934 10942 10946 10947 10952 10952 10957 10962 10967 10973 10979 10983 10985 10988 10990 10990 10989 10990 10991 10991 10992 10992 10995 10997 10999 10999 11000 11001 11001 11002 11003 11004 11003
10827 10835 10843 10853 10857 10867 10869 10877 10884 10902 10913 10923 10931 10937 10938 10940 10942 10946 10953 10961 10968 10973 10978 10981 10984 10987 10988 10988 10988 10990 10990 10991 10993 10994 10996 10999 11000 11001 11001 11001 11003 11003 11005 11005
10810 10820 10828 10835 10846 10854 10857 10865 10871 10887 10900 10910 10917 10924 10926 10923 10929 10936 10945 10953 10961 10967 10973 10978 10980 10983 10986 10986 10986 10987 10988 10988 10991 10994 10996 10998 10999 11001 11002 11002 11003 11004 11005 11005
10797 10807 10815 10822 10830 10837 10844 10851 10858 10870 10886 10894 10902 10909 10905 10904 10920 10931 10940 10948 10953 10962 10966 10971 10976 10979 10982 10982 10984 10983 10985 10986 10990 10992 10995 10997 10999 11000 11002 11003 11003 11003 11005 11005
10778 10790 10798 10807 10814 10824 10829 10839 10848 10856 10868 10879 10885 10891 10886 10899 10910 10918 10931 10938 10948 10956 10960 10963 10971 10974 10976 10979 10980 10982 10982 10985 10986 10991 10993 10996 10998 10999 11001 11002 11002 11003 11004 11005
10759 10770 10779 10788 10795 10803 10813 10823 10833 10843 10851 10860 10864 10869 10873 10887 10903 10911 10923 10929 10937 10946 10953 10959 10968 10970 10972 10975 10978 10980 10977 10982 10984 10987 10990 10993 10996 10998 11001 11002 11002 11003 11004 11004
10741 10749 10759 10766 10775 10784 10796 10808 10817 10826 10833 10841 10840 10845 10868 10879 10894 10908 10917 10922 10930 10937 10945 10949 10960 10966 10970 10972 10974 10976 10975 10973 10978 10984 10987 10990 10993 10996 10999 11001 11003 11004 11003 11003
10717 10722 10733 10744 10755 10768 10778 10789 10800 10807 10814 10818 10819 10836 10860 10873 10886 10897 10908 10914 10920 10928 10937 10938 10949 10958 10963 10966 10969 10971 10972 10971 10970 10972 10978 10985 10989 10991 10994 10998 11000 11001 11002 11003
10697 10702 10708 10722 10735 10750 10759 10770 10781 10786 10792 10797 10809 10822 10842 10860 10874 10883 10894 10903 10910 10917 10924 10931 10937 10948 10954 10958 10963 10969 10971 10969 10970 10970 10972 10976 10983 10988 10989 10992 10995 10997 10999 11001
10673 10681 10684 10701 10717 10732 10742 10751 10760 10768 10771 10776 10790 10818 10827 10842 10857 10868 10879 10890 10898 10906 10911 10922 10931 10937 10941 10947 10952 10957 10962 10966 10968 10969 10969 10971 10976 10981 10984 10986 10990 10994 10996 10997
10655 10660 10666 10681 10697 10709 10719 10726 10734 10741 10749 10758 10780 10799 10813 10824 10839 10850 10859 10872 10883 10891 10900 10908 10917 10926 10931 10935 10941 10946 10953 10959 10962 10966 10968 10968 10970 10974 10979 10984 10986 10988 10991 10992
10639 10647 10652 10658 10674 10687 10697 10700 10707 10713 10725 10736 10762 10773 10796 10801 10818 10830 10844 10852 10863 10872 10884 10893 10901 10910 10918 10923 10929 10936 10943 10949 10954 10958 10962 10965 10968 10970 10975 10979 10981 10984 10987 10987
10619 10628 10632 10640 10649 10661 10669 10675 10680 10693 10706 10721 10734 10753 10771 10781 10796 10809 10825 10836 10847 10856 10865 10876 10888 10897 10899 10906 10916 10924 10931 10938 10944 10949 10955 10959 10963 10967 10968 10972 10976 10979 10982 10986
10598 10608 10613 10621 10625 10633 10642 10649 10654 10669 10684 10696 10710 10728 10746 10762 10771 10788 10801 10815 10827 10839 10848 10857 10869 10878 10884 10895 10905 10914 10920 10927 10935 10942 10947 10951 10954 10959 10964 10965 10970 10972 10977 10981
10579 10584 10593 10600 10605 10609 10615 10620 10627 10637 10651 10667 10688 10700 10718 10738 10749 10762 10777 10791 10806 10818 10831 10840 10850 10858 10866 10879 10890 10901 10909 10916 10923 10930 10937 10941 10946 10951 10956 10961 10963 10965 10968 10974
10561 10565 10570 10578 10582 10587 10589 10589 10593 10605 10622 10639 10661 10674 10688 10709 10724 10736 10751 10768 10784 10796 10808 10820 10829 10840 10848 10859 10874 10887 10897 10903 10911 10917 10925 10930 10936 10940 10945 10950 10955 10958 10960 10964
10545 10547 10550 10551 10556 10561 10564 10561 10569 10576 10591 10606 10625 10642 10657 10673 10692 10705 10718 10738 10754 10774 10783 10797 10811 10819 10830 10842 10857 10869 10881 10889 10897 10904 10912 10917 10923 10930 10936 10942 10947 10953 10954 10956
10526 10528 10529 10530 10538 10541 10536 10531 10538 10551 10553 10568 10588 10607 10625 10641 10659 10677 10691 10705 10723 10743 10761 10775 10788 10800 10811 10824 10837 10850 10864 10875 10883 10890 10899 10906 10911 10919 10925 10931 10936 10942 10946 10949
10510 10510 10511 10513 10514 10514 10509 10515 10519 10522 10528 10539 10555 10570 10594 10613 10631 10643 10663 10675 10690 10708 10733 10751 10766 10779 10793 10806 10821 10836 10847 10858 10867 10874 10882 10888 10898 10907 10915 10918 10922 10929 10936 10939
10496 10494 10494 10493 10491 10489 10489 10493 10498 10500 10501 10511 10520 10533 10554 10579 10602 10611 10632 10649 10658 10679 10700 10723 10743 10760 10772 10787 10800 10812 10825 10837 10842 10851 10862 10871 10884 10891 10898 10903 10909 10916 10923 10928
10478 10478 10479 10477 10473 10471 10471 10472 10476 10478 10480 10485 10490 10501 10519 10541 10562 10578 10593 10614 10630 10646 10665 10689 10711 10736 10750 10762 10775 10789 10806 10816 10827 10832 10843 10854 10866 10875 10880 10887 10895 10903 10909 10915
10466 10463 10461 10460 10458 10456 10454 10453 10457 10459 10461 10464 10469 10478 10493 10509 10528 10546 10557 10577 10599 10615 10636 10657 10681 10704 10727 10737 10751 10768 10784 10798 10809 10816 10829 10840 10850 10858 10866 10874 10882 10889 10895 10901
10452 10447 10446 10446 10445 10444 10443 10442 10440 10440 10444 10448 10453 10458 10466 10481 10498 10518 10522 10541 10564 10582 10603 10626 10650 10673 10698 10716 10726 10742 10758 10774 10786 10797 10807 10822 10832 10842 10851 10861 10868 10874 10881 10886